User: anonymous   Login
Location: Newark
(49.2191°N, 12.6671°E)
Time: 10:35:54
(UTC+00:00)
Language:

LightSail 2 - Orbit

View from above orbital plane
View from above orbital plane
View from above satellite
View from above satellite

Ground track
Ground track

The orbit data is extracted from the following two-line orbital elements,

1 44420U 19036AC  20019.11613548  .00005763  00000-0  12867-2 0  9991
2 44420  24.0082 336.6752 0011908 263.6153  96.2546 14.54169373 28396
Epoch (UTC): 19 January 2020 02:47:14
Eccentricity: 0.0011908
inclination: 24.0082°
perigee height: 703 km
apogee height: 720 km
right ascension of ascending node: 336.6752°
argument of perigee: 263.6153°
revolutions per day: 14.54169373
mean anomaly at epoch: 96.2546°
orbit number at epoch: 2839

The dashed part of the orbit path shows where the satellite is in the earth's shadow,  

DLR